User: anonymous   Login
Location: Unspecified
(0.0000°N, 0.0000°E)
Time: 03:37:53
(UTC+00:00)
Language:

Metsat - Orbit

View from above orbital plane
View from above orbital plane
View from above satellite
View from above satellite

Ground track
Ground track

The orbit data is extracted from the following two-line orbital elements,

1 26382U 00032A   18114.64556282 -.00000250 +00000-0 +00000-0 0  9997
2 26382 010.3137 037.6803 0006085 264.1717 294.6901 01.00108064065149
Epoch (UTC): 24 April 2018 15:29:36
Eccentricity: 0.0006085
inclination: 10.3137°
perigee height: 35806 km
apogee height: 35858 km
right ascension of ascending node: 37.6803°
argument of perigee: 264.1717°
revolutions per day: 1.00108064
mean anomaly at epoch: 294.6901°
orbit number at epoch: 6514

The dashed part of the orbit path shows where the satellite is in the earth's shadow,  

DLR